Spokane Felts, WA
on Sunday, January 27, 2013

Sunday
Previous Day Next Day
Daily Summary
 ActualAverageRecord
Temperature
Mean Temperature °F 33°F  
Max Temperature 33°F 38°F 46°F (2003)
Min Temperature 29°F 27°F 8°F (1997)
Degree Days
Heating Degree Days 34 32  
Month to date heating degree days 1017 915  
Since 1 July heating degree days 3185 3584  
Cooling Degree Days 0 0  
Month to date cooling degree days 0 0  
Year to date cooling degree days 0 0  
Moisture
Dew Point 26°F   
Average Humidity 80    
Maximum Humidity 85    
Minimum Humidity 75    
Precipitation
Precipitation T in 0.06 in 0.55 in (2008)
Month to date precipitation 1.45 1.74  
Year to date precipitation 1.45 1.74  
Wind
Wind Speed 5 mph   
Max Wind Speed 12 mph   
Max Gust Speed 13 mph   
Visibility 8 miles   
Events Snow   

Key: T is trace of precipitation, MM is missing value
Source: NWS Daily Summary
Time(PST)TemperatureDew PointHumidity Pressure Visibility Wind DirectionWind SpeedGust SpeedPrecipitationEvents Conditions
12:22 AM 32.0°F 26.6°F 80% 29.94 in 10.0 miles SSW 8.1 mph - N/A   Overcast
12:53 AM 32.0°F 26.6°F 80% 29.94 in 10.0 miles SW 3.5 mph - N/A   Overcast
1:53 AM 32.0°F 27.0°F 82% 29.98 in 10.0 miles SSW 8.1 mph - N/A   Overcast
2:23 AM 32.0°F 26.6°F 80% 29.94 in 3.0 miles WSW 5.8 mph - 0.00 in Snow Light Snow
2:30 AM 32.0°F 28.4°F 87% 29.94 in 2.5 miles WSW 4.6 mph - 0.00 in Snow Light Snow
2:40 AM 32.0°F 28.4°F 87% 29.94 in 4.0 miles West 3.5 mph - 0.00 in Snow Light Snow
2:53 AM 32.0°F 28.0°F 85% 29.99 in 3.0 miles West 3.5 mph - 0.00 in Snow Light Snow
3:53 AM 30.9°F 26.1°F 82% 29.99 in 10.0 miles SSW 9.2 mph - 0.00 in   Overcast
4:20 AM 30.2°F 24.8°F 80% 29.94 in 10.0 miles SW 6.9 mph - N/A   Overcast
4:53 AM 30.0°F 25.0°F 82% 29.99 in 6.0 miles SW 6.9 mph - N/A   Haze
5:00 AM 30.2°F 24.8°F 80% 29.95 in 7.0 miles SW 9.2 mph - N/A   Overcast
5:15 AM 30.2°F 24.8°F 80% 29.95 in 8.0 miles WSW 8.1 mph - N/A   Overcast
5:53 AM 30.0°F 24.1°F 79% 30.00 in 6.0 miles SW 9.2 mph - 0.00 in Snow Light Snow
6:53 AM 30.0°F 24.1°F 79% 30.01 in 6.0 miles SSW 6.9 mph - 0.00 in Snow Light Snow
7:53 AM 28.9°F 24.1°F 82% 30.02 in 6.0 miles Calm Calm - 0.00 in Snow Light Snow
8:32 AM 30.2°F 24.8°F 80% 29.98 in 10.0 miles West 5.8 mph - 0.00 in   Overcast
8:53 AM 28.9°F 25.0°F 85% 30.03 in 9.0 miles WSW 4.6 mph - 0.00 in   Overcast
9:53 AM 30.0°F 25.0°F 82% 30.04 in 10.0 miles WNW 4.6 mph - N/A   Overcast
10:00 AM 30.2°F 24.8°F 80% 29.99 in 10.0 miles WNW 3.5 mph - N/A   Overcast
10:53 AM 30.9°F 25.0°F 79% 30.04 in 10.0 miles WSW 4.6 mph - N/A   Overcast
11:53 AM 32.0°F 26.1°F 79% 30.02 in 10.0 miles WSW 4.6 mph - N/A   Overcast
12:53 PM 33.1°F 26.1°F 75% 30.01 in 10.0 miles Variable 3.5 mph - N/A   Overcast
1:53 PM 33.1°F 27.0°F 78% 29.99 in 10.0 miles SSW 6.9 mph - N/A   Overcast
2:53 PM 33.1°F 26.1°F 75% 29.99 in 10.0 miles WSW 4.6 mph - 0.00 in   Overcast
3:53 PM 32.0°F 26.1°F 79% 30.00 in 10.0 miles South 8.1 mph - N/A   Overcast
4:53 PM 32.0°F 26.1°F 79% 30.01 in 10.0 miles South 8.1 mph - N/A   Overcast
5:53 PM 30.9°F 26.1°F 82% 30.01 in 10.0 miles SW 3.5 mph - N/A   Overcast
6:53 PM 32.0°F 26.1°F 79% 30.00 in 10.0 miles Calm Calm - N/A   Overcast
7:53 PM 32.0°F 26.1°F 79% 30.00 in 10.0 miles West 8.1 mph - N/A   Overcast
8:53 PM 32.0°F 26.1°F 79% 29.99 in 10.0 miles WNW 3.5 mph - N/A   Overcast
9:53 PM 33.1°F 27.0°F 78% 29.99 in 10.0 miles Calm Calm - N/A   Overcast
10:49 PM 33.8°F 26.6°F 75% 29.93 in 6.0 miles Calm Calm - 0.00 in Snow Light Snow
10:53 PM 32.0°F 27.0°F 82% 29.98 in 7.0 miles Calm Calm - 0.00 in   Overcast
11:23 PM 32.0°F 28.4°F 87% 29.93 in 2.0 miles Calm Calm - 0.00 in Snow Light Snow
11:31 PM 32.0°F 28.4°F 87% 29.93 in 1.8 miles Calm Calm - 0.00 in Snow Light Snow
11:39 PM 32.0°F 28.4°F 87% 29.93 in 1.8 miles Calm Calm - 0.00 in Snow Light Snow
11:48 PM 32.0°F 28.4°F 87% 29.92 in 2.0 miles Calm Calm - 0.00 in Snow Light Snow
11:53 PM 32.0°F 28.9°F 88% 29.97 in 2.0 miles Calm Calm - 0.00 in Snow Light Snow
Moon Phase
Jan. 27 Feb. 03 Feb. 10 Feb. 17 Feb. 25
Sunrise:07:21 AM (PST) Moon Rise:05:50 PM (PST)1/27
Sunset:04:43 PM (PST) Moon Set:07:10 AM (PST)1/27

Copyright © 2014 The Weather Underground, Inc.